Tracking 34794 objects as of 19-Jul-2026
HD Live streaming from Space Station
objects crossing your sky now

STARLINK-32533

Track STARLINK-32533 now!
10-day predictions
STARLINK-32533 is classified as:


NORAD ID: 61706
Int'l Code: 2024-195V
Perigee: 468.9 km
Apogee: 470.8 km
Inclination: 53.2 °
Period: 93.8 minutes
Semi major axis: 6840 km
RCS: Unknown
Launch date: October 30, 2024
Source: United States (US)
Launch site: AIR FORCE WESTERN TEST RANGE (AFWTR)
Your satellite tracking list
Your tracking list is empty




NASA's NSSDC Master Catalog

Two Line Element Set (TLE):
1 61706U 24195V   26199.19931664 -.00000565  00000-0 -55887-5 0  9993
2 61706  53.1588 266.2819 0001365  88.6749 271.4410 15.34388445 97205
Source of the keplerian elements: AFSPC